Powrót do katalogu

CZ-6A DEB

AktywnySSO
NORAD 54269·DEBRIS·🇨🇳 China

Wystrzelony Nov 11, 2022 z Taiyuan Satellite Launch Center

Loading…

Następne Przeloty (najbliższe 24 godziny)

TLE

ŚwieżeSource: Space-Track

Epoka: Sep 14, 2026, 21:21 UTC

1 54269U 22151L   26257.88970975  .00000192  00000-0  64274-4 0  9991
2 54269  98.6030 310.7548 0131670  51.3529 309.9359 14.43730192201730

Śledź CZ-6A DEB w czasie rzeczywistym z AllMySat

Download on the App Store